Year,Month,Day,Hour,Minute,Value (Times are PST for windspeed in km/hr)
2008,05,30,00,00,0.30
2008,05,30,00,01,1.80
2008,05,30,00,02,1.60
2008,05,30,00,03,0.10
2008,05,30,00,04,0.30
2008,05,30,00,05,0.50
2008,05,30,00,06,2.10
2008,05,30,00,07,0.00
2008,05,30,00,08,0.80
2008,05,30,00,09,0.40
2008,05,30,00,10,0.00
2008,05,30,00,11,0.00
2008,05,30,00,12,0.00
2008,05,30,00,13,0.40
2008,05,30,00,14,1.00
2008,05,30,00,15,0.50
2008,05,30,00,16,0.00
2008,05,30,00,17,0.10
2008,05,30,00,18,0.10
2008,05,30,00,19,1.00
2008,05,30,00,20,0.30
2008,05,30,00,21,0.00
2008,05,30,00,22,0.00
2008,05,30,00,23,0.20
2008,05,30,00,24,0.50
2008,05,30,00,25,0.00
2008,05,30,00,26,0.00
2008,05,30,00,27,0.00
2008,05,30,00,28,0.50
2008,05,30,00,29,0.80
2008,05,30,00,30,0.00
2008,05,30,00,31,0.00
2008,05,30,00,32,0.00
2008,05,30,00,33,0.00
2008,05,30,00,34,0.00
2008,05,30,00,35,0.00
2008,05,30,00,36,0.00
2008,05,30,00,37,0.00
2008,05,30,00,38,0.10
2008,05,30,00,39,0.00
2008,05,30,00,40,0.00
2008,05,30,00,41,0.00
2008,05,30,00,42,0.00
2008,05,30,00,43,0.00
2008,05,30,00,44,0.00
2008,05,30,00,45,0.00
2008,05,30,00,46,0.10
2008,05,30,00,47,0.00
2008,05,30,00,48,0.10
2008,05,30,00,49,0.00
2008,05,30,00,50,0.30
2008,05,30,00,51,0.50
2008,05,30,00,52,1.50
2008,05,30,00,53,0.30
2008,05,30,00,54,0.00
2008,05,30,00,55,0.40
2008,05,30,00,56,1.30
2008,05,30,00,57,0.40
2008,05,30,00,58,0.00
2008,05,30,00,59,0.00
2008,05,30,01,00,0.20
2008,05,30,01,01,0.00
2008,05,30,01,02,1.80
2008,05,30,01,03,4.30
2008,05,30,01,04,2.70
2008,05,30,01,05,3.50
2008,05,30,01,06,1.60
2008,05,30,01,07,0.00
2008,05,30,01,08,0.60
2008,05,30,01,09,0.80
2008,05,30,01,10,1.80
2008,05,30,01,11,1.90
2008,05,30,01,12,0.00
2008,05,30,01,13,1.00
2008,05,30,01,14,1.30
2008,05,30,01,15,0.60
2008,05,30,01,16,0.10
2008,05,30,01,17,0.10
2008,05,30,01,18,3.80
2008,05,30,01,19,1.70
2008,05,30,01,20,0.90
2008,05,30,01,21,1.50
2008,05,30,01,22,0.00
2008,05,30,01,23,0.30
2008,05,30,01,24,0.20
2008,05,30,01,25,0.50
2008,05,30,01,26,0.00
2008,05,30,01,27,0.10
2008,05,30,01,28,0.40
2008,05,30,01,29,1.10
2008,05,30,01,30,0.40
2008,05,30,01,31,0.60
2008,05,30,01,32,0.00
2008,05,30,01,33,0.00
2008,05,30,01,34,0.00
2008,05,30,01,35,0.00
2008,05,30,01,36,0.60
2008,05,30,01,37,0.00
2008,05,30,01,38,0.00
2008,05,30,01,39,0.00
2008,05,30,01,40,0.00
2008,05,30,01,41,0.00
2008,05,30,01,42,0.10
2008,05,30,01,43,1.70
2008,05,30,01,44,0.40
2008,05,30,01,45,0.00
2008,05,30,01,46,0.20
2008,05,30,01,47,0.00
2008,05,30,01,48,0.00
2008,05,30,01,49,0.00
2008,05,30,01,50,0.00
2008,05,30,01,51,0.00
2008,05,30,01,52,0.00
2008,05,30,01,53,0.00
2008,05,30,01,54,0.00
2008,05,30,01,55,0.00
2008,05,30,01,56,0.00
2008,05,30,01,57,0.30
2008,05,30,01,58,0.80
2008,05,30,01,59,0.10
2008,05,30,02,00,0.00
2008,05,30,02,01,1.00
2008,05,30,02,02,1.30
2008,05,30,02,03,0.10
2008,05,30,02,04,0.60
2008,05,30,02,05,0.00
2008,05,30,02,06,1.60
2008,05,30,02,07,1.50
2008,05,30,02,08,0.60
2008,05,30,02,09,0.30
2008,05,30,02,10,1.40
2008,05,30,02,11,0.20
2008,05,30,02,12,0.00
2008,05,30,02,13,0.00
2008,05,30,02,14,0.00
2008,05,30,02,15,0.00
2008,05,30,02,16,0.00
2008,05,30,02,17,0.00
2008,05,30,02,18,0.00
2008,05,30,02,19,0.00
2008,05,30,02,20,0.00
2008,05,30,02,21,0.00
2008,05,30,02,22,0.00
2008,05,30,02,23,0.00
2008,05,30,02,24,0.00
2008,05,30,02,25,0.00
2008,05,30,02,26,0.00
2008,05,30,02,27,0.00
2008,05,30,02,28,0.00
2008,05,30,02,29,0.00
2008,05,30,02,30,0.10
2008,05,30,02,31,0.00
2008,05,30,02,32,0.10
2008,05,30,02,33,0.00
2008,05,30,02,34,0.00
2008,05,30,02,35,0.00
2008,05,30,02,36,0.00
2008,05,30,02,37,0.10
2008,05,30,02,38,0.90
2008,05,30,02,39,0.30
2008,05,30,02,40,0.00
2008,05,30,02,41,0.00
2008,05,30,02,42,0.00
2008,05,30,02,43,0.00
2008,05,30,02,44,0.00
2008,05,30,02,45,0.00
2008,05,30,02,46,0.00
2008,05,30,02,47,0.00
2008,05,30,02,48,0.00
2008,05,30,02,49,0.20
2008,05,30,02,50,0.60
2008,05,30,02,51,0.40
2008,05,30,02,52,1.40
2008,05,30,02,53,0.40
2008,05,30,02,54,0.20
2008,05,30,02,55,0.10
2008,05,30,02,56,0.00
2008,05,30,02,57,0.00
2008,05,30,02,58,0.20
2008,05,30,02,59,0.00
2008,05,30,03,00,0.00
2008,05,30,03,01,0.10
2008,05,30,03,02,1.00
2008,05,30,03,03,0.60
2008,05,30,03,04,3.10
2008,05,30,03,05,0.50
2008,05,30,03,06,0.50
2008,05,30,03,07,0.40
2008,05,30,03,08,0.10
2008,05,30,03,09,0.00
2008,05,30,03,10,0.00
2008,05,30,03,11,0.30
2008,05,30,03,12,0.10
2008,05,30,03,13,0.00
2008,05,30,03,14,0.70
2008,05,30,03,15,1.30
2008,05,30,03,16,0.70
2008,05,30,03,17,2.10
2008,05,30,03,18,2.20
2008,05,30,03,19,0.30
2008,05,30,03,20,0.10
2008,05,30,03,21,0.00
2008,05,30,03,22,0.00
2008,05,30,03,23,0.40
2008,05,30,03,24,0.60
2008,05,30,03,25,0.00
2008,05,30,03,26,0.00
2008,05,30,03,27,0.20
2008,05,30,03,28,0.50
2008,05,30,03,29,1.20
2008,05,30,03,30,0.90
2008,05,30,03,31,0.40
2008,05,30,03,32,1.10
2008,05,30,03,33,0.20
2008,05,30,03,34,0.10
2008,05,30,03,35,0.00
2008,05,30,03,36,0.00
2008,05,30,03,37,0.00
2008,05,30,03,38,0.00
2008,05,30,03,39,0.00
2008,05,30,03,40,0.00
2008,05,30,03,41,0.00
2008,05,30,03,42,0.00
2008,05,30,03,43,0.00
2008,05,30,03,44,0.00
2008,05,30,03,45,0.00
2008,05,30,03,46,0.00
2008,05,30,03,47,0.00
2008,05,30,03,48,0.00
2008,05,30,03,49,0.00
2008,05,30,03,50,0.00
2008,05,30,03,51,0.00
2008,05,30,03,52,0.00
2008,05,30,03,53,0.00
2008,05,30,03,54,0.00
2008,05,30,03,55,0.00
2008,05,30,03,56,0.00
2008,05,30,03,57,0.00
2008,05,30,03,58,0.00
2008,05,30,03,59,0.00
2008,05,30,04,00,0.00
2008,05,30,04,01,0.00
2008,05,30,04,02,0.00
2008,05,30,04,03,0.00
2008,05,30,04,05,0.00
2008,05,30,04,22,0.00
2008,05,30,04,23,0.00
2008,05,30,04,24,0.00
2008,05,30,04,25,0.00
2008,05,30,04,26,0.00
2008,05,30,04,27,0.00
2008,05,30,04,28,0.00
2008,05,30,04,29,0.00
2008,05,30,04,30,0.00
2008,05,30,04,31,0.00
2008,05,30,04,32,0.00
2008,05,30,04,33,0.00
2008,05,30,04,34,0.00
2008,05,30,04,35,0.00
2008,05,30,04,36,0.00
2008,05,30,04,37,0.00
2008,05,30,04,38,0.00
2008,05,30,04,39,0.00
2008,05,30,04,40,0.00
2008,05,30,04,41,0.00
2008,05,30,04,42,0.00
2008,05,30,04,43,0.00
2008,05,30,04,44,0.00
2008,05,30,04,45,0.00
2008,05,30,04,46,0.00
2008,05,30,04,47,0.40
2008,05,30,04,48,0.00
2008,05,30,04,49,0.00
2008,05,30,04,50,0.00
2008,05,30,04,51,0.00
2008,05,30,04,52,0.00
2008,05,30,04,53,0.00
2008,05,30,04,54,0.00
2008,05,30,04,55,0.00
2008,05,30,04,56,0.00
2008,05,30,04,57,0.20
2008,05,30,04,58,0.00
2008,05,30,04,59,0.20
2008,05,30,05,00,0.20
2008,05,30,05,01,1.00
2008,05,30,05,02,0.00
2008,05,30,05,03,0.20
2008,05,30,05,04,0.30
2008,05,30,05,05,0.00
2008,05,30,05,06,0.20
2008,05,30,05,07,1.80
2008,05,30,05,08,4.30
2008,05,30,05,09,4.50
2008,05,30,05,10,3.40
2008,05,30,05,11,2.70
2008,05,30,05,12,5.00
2008,05,30,05,13,6.30
2008,05,30,05,14,1.60
2008,05,30,05,15,4.30
2008,05,30,05,16,4.70
2008,05,30,05,17,2.10
2008,05,30,05,18,0.10
2008,05,30,05,19,0.00
2008,05,30,05,20,0.10
2008,05,30,05,21,0.00
2008,05,30,05,22,1.60
2008,05,30,05,23,0.10
2008,05,30,05,24,0.00
2008,05,30,05,25,0.00
2008,05,30,05,26,0.00
2008,05,30,05,27,0.10
2008,05,30,05,28,0.00
2008,05,30,05,29,0.70
2008,05,30,05,30,1.90
2008,05,30,05,31,0.70
2008,05,30,05,32,0.40
2008,05,30,05,33,0.90
2008,05,30,05,34,2.30
2008,05,30,05,35,0.10
2008,05,30,05,36,0.00
2008,05,30,05,37,1.60
2008,05,30,05,38,1.50
2008,05,30,05,39,0.30
2008,05,30,05,40,0.70
2008,05,30,05,41,0.20
2008,05,30,05,42,0.50
2008,05,30,05,43,0.00
2008,05,30,05,44,0.00
2008,05,30,05,45,0.00
2008,05,30,05,46,0.00
2008,05,30,05,47,0.00
2008,05,30,05,48,0.20
2008,05,30,05,49,0.10
2008,05,30,05,50,0.10
2008,05,30,05,51,0.00
2008,05,30,05,52,0.00
2008,05,30,05,53,0.00
2008,05,30,05,54,0.00
2008,05,30,05,55,0.10
2008,05,30,05,56,0.00
2008,05,30,05,57,0.80
2008,05,30,05,58,1.00
2008,05,30,05,59,1.70
2008,05,30,06,00,1.50
2008,05,30,06,01,0.20
2008,05,30,06,02,0.00
2008,05,30,06,03,0.00
2008,05,30,06,04,0.20
2008,05,30,06,05,0.00
2008,05,30,06,06,0.00
2008,05,30,06,07,0.00
2008,05,30,06,08,0.10
2008,05,30,06,09,0.00
2008,05,30,06,10,0.00
2008,05,30,06,11,0.00
2008,05,30,06,12,0.00
2008,05,30,06,13,0.00
2008,05,30,06,14,0.10
2008,05,30,06,15,0.00
2008,05,30,06,16,0.30
2008,05,30,06,17,0.00
2008,05,30,06,18,0.30
2008,05,30,06,19,0.50
2008,05,30,06,20,0.20
2008,05,30,06,21,0.00
2008,05,30,06,22,0.00
2008,05,30,06,23,0.00
2008,05,30,06,24,0.00
2008,05,30,06,25,0.00
2008,05,30,06,26,0.00
2008,05,30,06,27,0.00
2008,05,30,06,28,0.00
2008,05,30,06,29,0.00
2008,05,30,06,30,0.10
2008,05,30,06,31,0.70
2008,05,30,06,32,0.40
2008,05,30,06,33,1.10
2008,05,30,06,34,2.20
2008,05,30,06,35,0.80
2008,05,30,06,36,1.00
2008,05,30,06,37,0.00
2008,05,30,06,38,0.00
2008,05,30,06,39,0.10
2008,05,30,06,40,0.30
2008,05,30,06,41,0.60
2008,05,30,06,42,0.70
2008,05,30,06,43,0.40
2008,05,30,06,44,3.50
2008,05,30,06,45,1.40
2008,05,30,06,46,4.40
2008,05,30,06,47,4.60
2008,05,30,06,48,5.10
2008,05,30,06,49,3.20
2008,05,30,06,50,3.30
2008,05,30,06,51,0.70
2008,05,30,06,52,2.40
2008,05,30,06,53,2.60
2008,05,30,06,54,1.30
2008,05,30,06,55,2.60
2008,05,30,06,56,1.90
2008,05,30,06,57,2.70
2008,05,30,06,58,3.70
2008,05,30,06,59,2.00
2008,05,30,07,00,3.30
2008,05,30,07,01,2.40
2008,05,30,07,02,2.00
2008,05,30,07,03,2.40
2008,05,30,07,04,5.00
2008,05,30,07,05,3.50
2008,05,30,07,06,2.50
2008,05,30,07,07,2.40
2008,05,30,07,08,1.60
2008,05,30,07,09,4.60
2008,05,30,07,10,4.30
2008,05,30,07,11,3.60
2008,05,30,07,12,1.60
2008,05,30,07,13,2.40
2008,05,30,07,14,6.90
2008,05,30,07,15,2.60
2008,05,30,07,16,3.60
2008,05,30,07,17,0.80
2008,05,30,07,18,2.30
2008,05,30,07,19,4.60
2008,05,30,07,20,5.50
2008,05,30,07,21,3.90
2008,05,30,07,22,1.70
2008,05,30,07,23,2.50
2008,05,30,07,24,4.90
2008,05,30,07,25,4.20
2008,05,30,07,26,4.60
2008,05,30,07,27,2.20
2008,05,30,07,28,4.50
2008,05,30,07,29,4.10
2008,05,30,07,30,3.40
2008,05,30,07,31,1.50
2008,05,30,07,32,3.70
2008,05,30,07,33,3.70
2008,05,30,07,34,2.20
2008,05,30,07,35,1.20
2008,05,30,07,36,0.60
2008,05,30,07,37,2.40
2008,05,30,07,38,1.50
2008,05,30,07,39,3.10
2008,05,30,07,40,2.30
2008,05,30,07,41,1.00
2008,05,30,07,42,1.20
2008,05,30,07,43,2.90
2008,05,30,07,44,2.30
2008,05,30,07,45,0.90
2008,05,30,07,46,2.50
2008,05,30,07,47,1.80
2008,05,30,07,48,2.00
2008,05,30,07,49,1.60
2008,05,30,07,50,1.40
2008,05,30,07,51,1.10
2008,05,30,07,52,1.90
2008,05,30,07,53,2.20
2008,05,30,07,54,2.30
2008,05,30,07,55,1.10
2008,05,30,07,56,3.70
2008,05,30,07,57,0.90
2008,05,30,07,58,3.50
2008,05,30,07,59,2.10
2008,05,30,08,00,1.50
2008,05,30,08,01,0.20
2008,05,30,08,02,0.60
2008,05,30,08,03,3.30
2008,05,30,08,04,2.30
2008,05,30,08,05,2.60
2008,05,30,08,06,3.20
2008,05,30,08,07,2.70
2008,05,30,08,08,2.70
2008,05,30,08,09,4.00
2008,05,30,08,10,3.30
2008,05,30,08,11,2.50
2008,05,30,08,12,0.90
2008,05,30,08,13,3.50
2008,05,30,08,14,4.20
2008,05,30,08,15,2.50
2008,05,30,08,16,2.60
2008,05,30,08,17,2.50
2008,05,30,08,18,3.20
2008,05,30,08,19,4.90
2008,05,30,08,20,3.80
2008,05,30,08,21,3.80
2008,05,30,08,22,3.70
2008,05,30,08,23,3.70
2008,05,30,08,24,3.50
2008,05,30,08,25,0.70
2008,05,30,08,26,2.10
2008,05,30,08,27,2.10
2008,05,30,08,28,1.70
2008,05,30,08,29,0.30
2008,05,30,08,30,1.10
2008,05,30,08,31,0.30
2008,05,30,08,32,3.60
2008,05,30,08,33,3.80
2008,05,30,08,34,4.00
2008,05,30,08,35,1.60
2008,05,30,08,36,1.80
2008,05,30,08,37,3.90
2008,05,30,08,38,1.90
2008,05,30,08,39,3.20
2008,05,30,08,40,2.50
2008,05,30,08,41,3.20
2008,05,30,08,42,2.20
2008,05,30,08,43,4.60
2008,05,30,08,44,8.50
2008,05,30,08,45,8.30
2008,05,30,08,46,7.90
2008,05,30,08,47,8.40
2008,05,30,08,48,6.40
2008,05,30,08,49,6.40
2008,05,30,08,50,8.10
2008,05,30,08,51,8.90
2008,05,30,08,52,8.80
2008,05,30,08,53,10.60
2008,05,30,08,54,11.00
2008,05,30,08,55,9.70
2008,05,30,08,56,7.00
2008,05,30,08,57,5.70
2008,05,30,08,58,7.50
2008,05,30,08,59,7.70
2008,05,30,09,00,6.30
2008,05,30,09,01,7.30
2008,05,30,09,02,4.40
2008,05,30,09,03,5.40
2008,05,30,09,04,9.70
2008,05,30,09,05,9.30
2008,05,30,09,06,10.80
2008,05,30,09,07,9.50
2008,05,30,09,08,9.30
2008,05,30,09,09,8.20
2008,05,30,09,10,6.30
2008,05,30,09,11,4.80
2008,05,30,09,12,3.90
2008,05,30,09,13,7.80
2008,05,30,09,14,6.80
2008,05,30,09,15,7.00
2008,05,30,09,16,5.60
2008,05,30,09,17,6.40
2008,05,30,09,18,8.40
2008,05,30,09,19,8.90
2008,05,30,09,20,9.50
2008,05,30,09,21,6.00
2008,05,30,09,22,7.40
2008,05,30,09,23,7.10
2008,05,30,09,24,5.80
2008,05,30,09,28,5.70
2008,05,30,09,49,1.90
2008,05,30,10,05,4.50
2008,05,30,10,14,1.60
2008,05,30,10,16,7.50
2008,05,30,10,17,6.50
2008,05,30,10,18,5.30
2008,05,30,10,19,5.60
2008,05,30,10,20,3.50
2008,05,30,10,21,6.20
2008,05,30,10,22,7.70
2008,05,30,10,23,6.70
2008,05,30,10,24,7.80
2008,05,30,10,25,7.10
2008,05,30,10,26,8.40
2008,05,30,10,27,6.20
2008,05,30,10,28,4.70
2008,05,30,10,29,6.00
2008,05,30,10,30,5.30
2008,05,30,10,31,6.00
2008,05,30,10,32,3.30
2008,05,30,10,33,4.80
2008,05,30,10,34,6.10
2008,05,30,10,35,7.70
2008,05,30,10,36,6.70
2008,05,30,10,37,6.70
2008,05,30,10,40,5.60
2008,05,30,10,41,5.70
2008,05,30,10,42,2.10
2008,05,30,10,43,6.40
2008,05,30,10,44,6.40
2008,05,30,10,45,6.40
2008,05,30,10,46,6.40
2008,05,30,10,47,6.20
2008,05,30,10,48,3.70
2008,05,30,10,49,3.50
2008,05,30,10,50,2.70
2008,05,30,10,51,1.20
2008,05,30,10,52,3.60
2008,05,30,10,53,5.00
2008,05,30,10,54,6.30
2008,05,30,10,55,4.50
2008,05,30,10,56,3.90
2008,05,30,10,57,4.30
2008,05,30,10,58,3.90
2008,05,30,10,59,3.60
2008,05,30,11,00,5.00
2008,05,30,11,01,4.40
2008,05,30,11,02,2.90
2008,05,30,11,03,5.00
2008,05,30,11,04,3.90
2008,05,30,11,05,5.30
2008,05,30,11,06,5.30
2008,05,30,11,07,3.70
2008,05,30,11,08,4.20
2008,05,30,11,09,5.00
2008,05,30,11,10,3.50
2008,05,30,11,11,3.10
2008,05,30,11,12,3.90
2008,05,30,11,13,5.00
2008,05,30,11,14,4.40
2008,05,30,11,15,4.00
2008,05,30,11,16,2.50
2008,05,30,11,17,4.00
2008,05,30,11,18,3.90
2008,05,30,11,19,4.70
2008,05,30,11,20,4.30
2008,05,30,11,21,4.30
2008,05,30,11,22,2.90
2008,05,30,11,23,3.50
2008,05,30,11,24,5.70
2008,05,30,11,25,7.00
2008,05,30,11,26,4.80
2008,05,30,11,27,3.00
2008,05,30,11,28,5.10
2008,05,30,11,29,4.20
2008,05,30,11,30,5.80
2008,05,30,11,31,5.70
2008,05,30,11,32,6.10
2008,05,30,11,33,5.90
2008,05,30,11,34,5.00
2008,05,30,11,35,5.30
2008,05,30,11,36,5.00
2008,05,30,11,37,4.70
2008,05,30,11,38,7.70
2008,05,30,11,39,8.80
2008,05,30,11,40,7.70
2008,05,30,11,41,6.40
2008,05,30,11,42,8.10
2008,05,30,11,43,6.60
2008,05,30,11,44,7.50
2008,05,30,11,45,6.60
2008,05,30,11,46,6.70
2008,05,30,11,47,9.30
2008,05,30,11,48,8.70
2008,05,30,11,49,7.80
2008,05,30,11,50,7.50
2008,05,30,11,51,6.40
2008,05,30,11,52,6.00
2008,05,30,11,53,5.00
2008,05,30,11,54,4.00
2008,05,30,11,55,7.30
2008,05,30,11,56,5.00
2008,05,30,11,57,5.70
2008,05,30,11,58,5.30
2008,05,30,11,59,6.40
2008,05,30,12,00,4.60
2008,05,30,12,01,3.60
2008,05,30,12,02,4.70
2008,05,30,12,03,7.10
2008,05,30,12,04,10.60
2008,05,30,12,05,10.10
2008,05,30,12,06,6.80
2008,05,30,12,07,8.40
2008,05,30,12,08,6.20
2008,05,30,12,09,7.70
2008,05,30,12,10,7.10
2008,05,30,12,11,7.50
2008,05,30,12,12,6.50
2008,05,30,12,13,9.20
2008,05,30,12,14,8.40
2008,05,30,12,15,6.90
2008,05,30,12,16,7.50
2008,05,30,12,17,8.00
2008,05,30,12,18,8.90
2008,05,30,12,19,7.40
2008,05,30,12,20,8.20
2008,05,30,12,21,8.90
2008,05,30,12,22,7.50
2008,05,30,12,23,8.30
2008,05,30,12,24,9.60
2008,05,30,12,25,8.00
2008,05,30,12,26,6.40
2008,05,30,12,27,11.70
2008,05,30,12,28,8.90
2008,05,30,12,29,7.20
2008,05,30,12,30,5.30
2008,05,30,12,31,8.60
2008,05,30,12,32,11.40
2008,05,30,12,33,9.20
2008,05,30,12,34,9.80
2008,05,30,12,35,6.80
2008,05,30,12,36,6.60
2008,05,30,12,37,5.10
2008,05,30,12,38,6.70
2008,05,30,12,39,8.50
2008,05,30,12,40,6.90
2008,05,30,12,41,7.80
2008,05,30,12,42,9.20
2008,05,30,12,43,8.70
2008,05,30,12,44,9.60
2008,05,30,12,45,8.00
2008,05,30,12,46,9.00
2008,05,30,12,47,6.80
2008,05,30,12,48,6.40
2008,05,30,12,49,6.80
2008,05,30,12,50,9.60
2008,05,30,12,51,8.10
2008,05,30,12,52,12.40
2008,05,30,12,53,11.70
2008,05,30,12,54,7.70
2008,05,30,12,55,8.00
2008,05,30,12,56,11.40
2008,05,30,12,57,10.20
2008,05,30,12,58,8.40
2008,05,30,12,59,5.10
2008,05,30,13,00,5.30
2008,05,30,13,01,7.50
2008,05,30,13,02,6.10
2008,05,30,13,03,7.00
2008,05,30,13,04,8.60
2008,05,30,13,05,11.00
2008,05,30,13,06,9.20
2008,05,30,13,07,7.80
2008,05,30,13,08,9.90
2008,05,30,13,09,9.90
2008,05,30,13,10,10.90
2008,05,30,13,11,8.90
2008,05,30,13,12,5.30
2008,05,30,13,13,7.00
2008,05,30,13,14,4.70
2008,05,30,13,15,4.70
2008,05,30,13,16,6.70
2008,05,30,13,17,5.40
2008,05,30,13,18,9.80
2008,05,30,13,19,9.10
2008,05,30,13,20,6.20
2008,05,30,13,21,5.20
2008,05,30,13,22,9.30
2008,05,30,13,23,6.80
2008,05,30,13,24,4.10
2008,05,30,13,25,5.30
2008,05,30,13,26,7.70
2008,05,30,13,27,6.70
2008,05,30,13,28,7.10
2008,05,30,13,29,5.10
2008,05,30,13,30,6.30
2008,05,30,13,31,5.80
2008,05,30,13,32,5.70
2008,05,30,13,33,4.10
2008,05,30,13,34,4.70
2008,05,30,13,35,5.00
2008,05,30,13,36,2.80
2008,05,30,13,37,3.70
2008,05,30,13,38,6.40
2008,05,30,13,39,4.00
2008,05,30,13,40,2.30
2008,05,30,13,41,3.40
2008,05,30,13,42,5.00
2008,05,30,13,43,4.20
2008,05,30,13,44,4.00
2008,05,30,13,45,2.50
2008,05,30,13,46,5.40
2008,05,30,13,47,4.50
2008,05,30,13,48,8.80
2008,05,30,13,49,7.70
2008,05,30,13,50,2.70
2008,05,30,13,51,5.30
2008,05,30,13,52,4.10
2008,05,30,13,53,7.80
2008,05,30,13,54,8.00
2008,05,30,13,55,5.40
2008,05,30,13,56,4.60
2008,05,30,13,57,8.20
2008,05,30,13,58,6.50
2008,05,30,13,59,6.60
2008,05,30,14,00,7.00
2008,05,30,14,01,4.10
2008,05,30,14,02,8.40
2008,05,30,14,03,6.70
2008,05,30,14,04,8.80
2008,05,30,14,05,7.20
2008,05,30,14,06,5.90
2008,05,30,14,07,4.90
2008,05,30,14,08,9.70
2008,05,30,14,09,7.60
2008,05,30,14,10,6.80
2008,05,30,14,11,7.00
2008,05,30,14,12,7.00
2008,05,30,14,13,7.50
2008,05,30,14,14,7.70
2008,05,30,14,15,5.40
2008,05,30,14,16,5.60
2008,05,30,14,17,5.40
2008,05,30,14,18,8.30
2008,05,30,14,19,8.60
2008,05,30,14,20,7.20
2008,05,30,14,21,7.20
2008,05,30,14,22,9.20
2008,05,30,14,23,8.10
2008,05,30,14,24,8.20
2008,05,30,14,25,5.30
2008,05,30,14,26,4.50
2008,05,30,14,27,6.60
2008,05,30,14,28,6.00
2008,05,30,14,29,5.30
2008,05,30,14,30,3.20
2008,05,30,14,31,5.00
2008,05,30,14,32,8.10
2008,05,30,14,33,3.30
2008,05,30,14,34,6.30
2008,05,30,14,35,7.10
2008,05,30,14,36,7.40
2008,05,30,14,37,6.90
2008,05,30,14,38,3.90
2008,05,30,14,39,3.60
2008,05,30,14,40,8.20
2008,05,30,14,41,4.90
2008,05,30,14,42,8.40
2008,05,30,14,43,7.00
2008,05,30,14,44,6.40
2008,05,30,14,45,8.10
2008,05,30,14,46,6.40
2008,05,30,14,47,9.30
2008,05,30,14,48,6.40
2008,05,30,14,49,8.80
2008,05,30,14,50,10.70
2008,05,30,14,51,7.10
2008,05,30,14,52,4.60
2008,05,30,14,53,6.10
2008,05,30,14,54,7.60
2008,05,30,14,55,11.90
2008,05,30,14,56,10.00
2008,05,30,14,57,11.40
2008,05,30,14,58,10.80
2008,05,30,14,59,6.00
2008,05,30,15,00,10.40
2008,05,30,15,01,6.40
2008,05,30,15,02,9.70
2008,05,30,15,03,7.70
2008,05,30,15,04,7.40
2008,05,30,15,05,6.40
2008,05,30,15,06,4.70
2008,05,30,15,07,6.20
2008,05,30,15,08,6.60
2008,05,30,15,09,3.90
2008,05,30,15,10,4.40
2008,05,30,15,11,5.00
2008,05,30,15,12,6.30
2008,05,30,15,13,3.80
2008,05,30,15,14,7.20
2008,05,30,15,15,6.80
2008,05,30,15,16,5.50
2008,05,30,15,17,7.70
2008,05,30,15,18,7.30
2008,05,30,15,19,8.00
2008,05,30,15,20,8.10
2008,05,30,15,21,4.20
2008,05,30,15,22,5.80
2008,05,30,15,23,8.60
2008,05,30,15,24,11.20
2008,05,30,15,25,10.70
2008,05,30,15,26,7.70
2008,05,30,15,27,9.10
2008,05,30,15,28,8.50
2008,05,30,15,29,11.20
2008,05,30,15,30,8.10
2008,05,30,15,31,8.20
2008,05,30,15,32,6.40
2008,05,30,15,33,6.50
2008,05,30,15,34,6.70
2008,05,30,15,35,6.90
2008,05,30,15,36,6.40
2008,05,30,15,37,8.60
2008,05,30,15,38,6.90
2008,05,30,15,39,6.90
2008,05,30,15,40,6.40
2008,05,30,15,41,6.30
2008,05,30,15,42,6.40
2008,05,30,15,43,8.10
2008,05,30,15,44,10.50
2008,05,30,15,45,10.60
2008,05,30,15,46,12.90
2008,05,30,15,47,12.40
2008,05,30,15,48,12.50
2008,05,30,15,49,11.40
2008,05,30,15,50,10.10
2008,05,30,15,51,10.80
2008,05,30,15,52,11.80
2008,05,30,15,53,11.70
2008,05,30,15,54,9.80
2008,05,30,15,55,7.30
2008,05,30,15,56,8.50
2008,05,30,15,57,8.90
2008,05,30,15,58,7.40
2008,05,30,15,59,6.10
2008,05,30,16,00,8.30
2008,05,30,16,01,10.60
2008,05,30,16,02,12.80
2008,05,30,16,03,11.30
2008,05,30,16,04,11.20
2008,05,30,16,05,14.30
2008,05,30,16,06,10.60
2008,05,30,16,07,12.30
2008,05,30,16,08,10.80
2008,05,30,16,09,11.40
2008,05,30,16,10,10.40
2008,05,30,16,11,7.10
2008,05,30,16,12,8.10
2008,05,30,16,13,7.90
2008,05,30,16,14,9.70
2008,05,30,16,15,9.70
2008,05,30,16,16,7.80
2008,05,30,16,17,9.40
2008,05,30,16,18,10.50
2008,05,30,16,19,10.80
2008,05,30,16,20,11.20
2008,05,30,16,21,10.50
2008,05,30,16,22,10.40
2008,05,30,16,23,9.30
2008,05,30,16,24,6.60
2008,05,30,16,25,9.70
2008,05,30,16,26,7.40
2008,05,30,16,27,6.40
2008,05,30,16,28,8.60
2008,05,30,16,29,11.60
2008,05,30,16,30,11.00
2008,05,30,16,31,9.70
2008,05,30,16,32,6.60
2008,05,30,16,33,8.20
2008,05,30,16,34,7.60
2008,05,30,16,35,10.60
2008,05,30,16,36,7.50
2008,05,30,16,37,6.80
2008,05,30,16,38,7.00
2008,05,30,16,39,7.60
2008,05,30,16,40,7.60
2008,05,30,16,41,8.60
2008,05,30,16,42,8.60
2008,05,30,16,43,9.10
2008,05,30,16,44,11.80
2008,05,30,16,45,7.70
2008,05,30,16,46,8.70
2008,05,30,16,47,9.80
2008,05,30,16,48,10.10
2008,05,30,16,49,12.00
2008,05,30,16,50,9.40
2008,05,30,16,51,11.40
2008,05,30,16,52,9.70
2008,05,30,16,53,10.10
2008,05,30,16,54,10.10
2008,05,30,16,55,9.20
2008,05,30,16,56,13.40
2008,05,30,16,57,10.10
2008,05,30,16,58,8.70
2008,05,30,16,59,8.30
2008,05,30,17,00,6.50
2008,05,30,17,01,6.20
2008,05,30,17,02,6.60
2008,05,30,17,03,7.50
2008,05,30,17,04,6.20
2008,05,30,17,05,6.50
2008,05,30,17,06,6.20
2008,05,30,17,07,5.20
2008,05,30,17,08,9.50
2008,05,30,17,09,8.00
2008,05,30,17,10,10.00
2008,05,30,17,11,5.90
2008,05,30,17,12,6.30
2008,05,30,17,13,6.10
2008,05,30,17,14,9.00
2008,05,30,17,15,6.00
2008,05,30,17,16,9.40
2008,05,30,17,17,8.20
2008,05,30,17,18,6.30
2008,05,30,17,19,6.80
2008,05,30,17,20,6.80
2008,05,30,17,21,6.50
2008,05,30,17,22,6.10
2008,05,30,17,23,7.60
2008,05,30,17,24,5.90
2008,05,30,17,25,7.10
2008,05,30,17,26,8.60
2008,05,30,17,27,6.90
2008,05,30,17,28,4.10
2008,05,30,17,29,7.10
2008,05,30,17,30,5.90
2008,05,30,17,31,9.00
2008,05,30,17,32,7.70
2008,05,30,17,33,8.00
2008,05,30,17,34,6.90
2008,05,30,17,35,5.50
2008,05,30,17,36,3.20
2008,05,30,17,37,4.90
2008,05,30,17,38,6.40
2008,05,30,17,39,6.00
2008,05,30,17,40,6.80
2008,05,30,17,41,5.50
2008,05,30,17,42,5.80
2008,05,30,17,43,5.70
2008,05,30,17,44,4.10
2008,05,30,17,45,7.20
2008,05,30,17,46,4.30
2008,05,30,17,47,4.70
2008,05,30,17,48,6.70
2008,05,30,17,49,5.20
2008,05,30,17,50,6.00
2008,05,30,17,51,5.60
2008,05,30,17,52,6.90
2008,05,30,17,53,5.10
2008,05,30,17,54,7.20
2008,05,30,17,55,5.50
2008,05,30,17,56,6.00
2008,05,30,17,57,6.90
2008,05,30,17,58,7.70
2008,05,30,17,59,6.80
2008,05,30,18,00,10.80
2008,05,30,18,01,9.80
2008,05,30,18,02,8.20
2008,05,30,18,03,6.30
2008,05,30,18,04,5.00
2008,05,30,18,05,6.00
2008,05,30,18,06,8.30
2008,05,30,18,07,6.60
2008,05,30,18,08,7.30
2008,05,30,18,09,6.40
2008,05,30,18,10,5.80
2008,05,30,18,11,6.70
2008,05,30,18,12,5.90
2008,05,30,18,13,6.70
2008,05,30,18,14,5.30
2008,05,30,18,15,5.30
2008,05,30,18,16,6.00
2008,05,30,18,17,4.90
2008,05,30,18,18,4.70
2008,05,30,18,19,3.20
2008,05,30,18,20,6.60
2008,05,30,18,21,3.70
2008,05,30,18,22,3.00
2008,05,30,18,23,5.30
2008,05,30,18,24,8.40
2008,05,30,18,25,6.80
2008,05,30,18,26,6.10
2008,05,30,18,27,4.40
2008,05,30,18,28,6.60
2008,05,30,18,29,6.50
2008,05,30,18,30,6.60
2008,05,30,18,31,4.70
2008,05,30,18,32,6.20
2008,05,30,18,33,6.10
2008,05,30,18,34,4.70
2008,05,30,18,35,5.60
2008,05,30,18,36,6.70
2008,05,30,18,37,7.30
2008,05,30,18,38,5.50
2008,05,30,18,39,4.80
2008,05,30,18,40,4.90
2008,05,30,18,41,4.40
2008,05,30,18,42,4.60
2008,05,30,18,43,4.70
2008,05,30,18,44,5.60
2008,05,30,18,45,5.40
2008,05,30,18,46,3.10
2008,05,30,18,47,3.50
2008,05,30,18,48,4.70
2008,05,30,18,49,4.10
2008,05,30,18,50,2.80
2008,05,30,18,51,3.90
2008,05,30,18,52,3.90
2008,05,30,18,53,4.10
2008,05,30,18,54,3.00
2008,05,30,18,55,3.80
2008,05,30,18,56,3.00
2008,05,30,18,57,3.80
2008,05,30,18,58,3.00
2008,05,30,18,59,5.10
2008,05,30,19,00,4.60
2008,05,30,19,01,4.10
2008,05,30,19,02,4.60
2008,05,30,19,03,4.50
2008,05,30,19,04,4.10
2008,05,30,19,05,2.90
2008,05,30,19,06,2.50
2008,05,30,19,07,2.70
2008,05,30,19,08,4.70
2008,05,30,19,09,3.40